This is the latest recevied weather packets stored in our database for station/object TF3VP. If no packets are shown the sender has not sent any weather packets the latest 1 day(s).
| Time | Temp. | Humidity | Pressure | Rain* | Wind** | Luminosity | Snow |
|---|---|---|---|---|---|---|---|
| 1778064418 | 3.89° C | 45% | 1022.2 hPa | 0 mm | - | 80 W/m² | - |
| 1778064115 | 3.89° C | 45% | 1021.9 hPa | 0 mm | - | 239 W/m² | - |
| 1778063812 | 3.89° C | 48% | 1022.2 hPa | 0 mm | - | 66 W/m² | - |
| 1778063509 | 3.89° C | 47% | 1021.9 hPa | 0 mm | - | 147 W/m² | - |
| 1778063207 | 3.33° C | 48% | 1021.9 hPa | 0 mm | - | 216 W/m² | - |
| 1778062601 | 3.33° C | 49% | 1022.2 hPa | 0 mm | - | 80 W/m² | - |
| 1778062298 | 3.33° C | 49% | 1022.2 hPa | 0 mm | - | 141 W/m² | - |
| 1778061694 | 2.78° C | 51% | 1021.9 hPa | 0 mm | - | 185 W/m² | - |
| 1778061089 | 2.78° C | 51% | 1022.2 hPa | 0 mm | - | 95 W/m² | - |
| 1778060484 | 2.78° C | 51% | 1022.2 hPa | 0 mm | - | 108 W/m² | - |
| 1778059879 | 2.78° C | 53% | 1022.2 hPa | 0 mm | - | 71 W/m² | - |
| 1778059577 | 2.78° C | 54% | 1022.2 hPa | 0 mm | - | 98 W/m² | - |
| 1778058669 | 2.22° C | 51% | 1022.2 hPa | 0 mm | - | 93 W/m² | - |
| 1778058367 | 2.22° C | 51% | 1021.9 hPa | 0 mm | - | 58 W/m² | - |
| 1778058063 | 2.22° C | 51% | 1021.9 hPa | 0 mm | - | 81 W/m² | - |
| 1778057456 | 1.67° C | 52% | 1021.6 hPa | 0 mm | - | 68 W/m² | - |
| 1778056547 | 1.67° C | 53% | 1021.6 hPa | 0 mm | - | 52 W/m² | - |
| 1778056244 | 1.67° C | 52% | 1021.6 hPa | 0 mm | - | 48 W/m² | - |
| 1778055335 | 1.67° C | 53% | 1021.9 hPa | 0 mm | - | 34 W/m² | - |
| 1778055032 | 1.67° C | 51% | 1021.9 hPa | 0 mm | - | 39 W/m² | - |
| 1778054124 | 1.11° C | 51% | 1021.9 hPa | 0 mm | - | 37 W/m² | - |
| 1778053518 | 1.11° C | 52% | 1021.6 hPa | 0 mm | - | 36 W/m² | - |
| 1778053215 | 1.11° C | 52% | 1021.6 hPa | 0 mm | - | 35 W/m² | - |
| 1778052913 | 1.11° C | 52% | 1021.6 hPa | 0 mm | - | 25 W/m² | - |
| 1778052610 | 1.11° C | 52% | 1021.6 hPa | 0 mm | - | 27 W/m² | - |
* Rain latest hour (hover to see other rain measurements)
** Current wind speed in m/s (hover to see current wind gust speed)